EDT,Max TemperatureF,Mean TemperatureF,Min TemperatureF,Max Dew PointF,MeanDew PointF,Min DewpointF,Max Humidity, Mean Humidity, Min Humidity, Max Sea Level PressureIn, Mean Sea Level PressureIn, Min Sea Level PressureIn, Max VisibilityMiles, Mean VisibilityMiles, Min VisibilityMiles, Max Wind SpeedMPH, Mean Wind SpeedMPH, Max Gust SpeedMPH,PrecipitationIn, CloudCover, Events, WindDirDegrees
2013-5-1,80,69,57,52,49,45,77,55,32,30.24,30.18,30.11,10,10,10,16,5,21,0.00,1,,134
2013-5-2,78,67,56,50,46,43,72,52,31,30.27,30.21,30.14,10,10,10,18,6,24,0.00,1,,131
2013-5-3,76,63,50,47,40,30,83,52,20,30.17,30.13,30.07,10,10,10,20,9,26,0.00,0,,133
2013-5-4,73,62,50,43,38,31,59,43,27,30.09,30.05,29.98,10,10,10,18,8,26,0.00,1,,118
2013-5-5,74,62,50,51,38,21,72,45,17,30.06,29.97,29.92,10,10,10,23,9,33,0.01,3,Rain,92
2013-5-6,66,61,55,57,52,46,93,78,62,29.94,29.91,29.88,10,8,2,13,7,17,0.48,7,Rain,62
2013-5-7,64,59,53,55,53,51,100,86,72,29.95,29.92,29.89,10,6,1,13,2,16,0.30,7,Rain-Thunderstorm,112
2013-5-8,68,61,54,57,54,53,100,80,59,30.00,29.92,29.86,10,6,0,8,3,10,1.01,7,Fog-Rain,143
2013-5-9,79,65,51,56,53,50,100,70,39,30.06,30.01,29.97,10,7,0,13,4,20,0.00,3,Fog,243
2013-5-10,78,69,59,62,58,54,100,75,50,30.01,29.94,29.87,10,7,0,25,6,40,0.51,6,Fog-Rain-Thunderstorm,207
2013-5-11,68,61,54,59,56,48,90,79,67,29.93,29.86,29.83,10,8,4,17,7,26,0.27,7,Rain,261
2013-5-12,59,51,42,48,35,28,83,58,33,30.13,30.02,29.91,10,10,7,21,6,30,0.00,6,Rain,284
2013-5-13,59,50,40,39,34,28,93,63,33,30.19,30.14,30.10,10,10,10,18,3,29,T,5,,6
2013-5-14,76,56,35,50,39,32,92,59,26,30.21,30.08,29.90,10,10,10,20,5,23,0.00,2,,189
2013-5-15,88,74,60,56,52,48,65,46,26,29.96,29.90,29.83,10,10,10,24,11,32,0.00,1,,234
2013-5-16,78,70,61,64,57,47,100,72,44,30.03,29.95,29.88,10,8,2,18,6,30,0.77,6,Rain-Thunderstorm,221
2013-5-17,81,69,57,67,61,56,100,75,49,30.11,30.06,30.01,10,6,0,6,1,12,0.04,5,Fog-Rain-Thunderstorm,58
2013-5-18,83,73,62,66,61,57,93,71,48,30.09,30.04,29.97,10,7,0,15,3,20,T,6,Fog-Rain-Thunderstorm,157
2013-5-19,84,74,64,67,63,59,93,76,58,30.05,30.00,29.94,10,9,4,14,2,17,0.04,6,Rain-Thunderstorm,128
2013-5-20,78,70,61,66,63,60,100,82,64,30.07,30.01,29.96,10,9,6,8,3,,0.00,4,,203
2013-5-21,85,73,60,70,64,59,97,74,51,30.02,29.94,29.86,10,8,2,29,4,43,0.36,4,Rain-Thunderstorm,203
2013-5-22,86,74,61,65,62,59,100,74,48,29.93,29.87,29.80,10,7,0,33,5,39,0.45,4,Fog-Rain-Hail-Thunderstorm,176
2013-5-23,78,69,59,63,60,53,87,73,58,29.92,29.87,29.83,10,9,1,20,6,24,0.30,6,Rain-Thunderstorm,234
2013-5-24,61,53,45,55,40,34,87,62,36,30.30,30.17,29.94,10,10,10,22,10,31,0.01,6,Rain,323
2013-5-25,64,51,37,45,39,35,93,66,39,30.39,30.32,30.25,10,9,4,17,3,24,0.00,1,,335
2013-5-26,70,57,43,47,42,37,100,68,35,30.32,30.27,30.23,10,9,1,12,2,17,0.00,1,,336
2013-5-27,78,63,47,60,51,42,93,72,50,30.26,30.17,30.05,10,10,8,12,3,15,0.01,5,Rain,40
2013-5-28,85,72,59,60,58,56,90,65,40,30.12,30.06,29.99,10,10,10,20,5,26,0.00,3,,211
2013-5-29,86,73,60,64,60,57,90,67,43,30.16,30.11,30.06,10,10,9,17,3,23,0.00,2,,243
2013-5-30,89,75,61,66,62,59,93,66,39,30.22,30.13,30.06,10,10,10,9,1,14,0.00,1,,185
2013-5-31,91,77,62,65,60,55,93,62,30,30.14,30.08,29.99,10,9,0,10,3,15,T,1,Fog,206